| time (UTC) | temp F | wind direction | speed knots | gust knots | rain 1hr in | rain 24hr in | rain mn in | humidity % | barometer mb |
| 20260509032601 | 72 | 219 | 0.0 | 0.0 | 0.00 | 0.31 | 0.31 | 96 | 1012.4 |
| 20260509030418 | 72 | 219 | 0.0 | 0.0 | 0.00 | 0.31 | 0.31 | 96 | 1012.4 |
| 20260509025422 | 72 | 219 | 0.0 | 0.0 | 0.00 | 0.31 | 0.31 | 96 | 1012.4 |
| 20260509024441 | 72 | 219 | 0.0 | 0.0 | 0.00 | 0.31 | 0.31 | 96 | 1012.5 |
| 20260509023452 | 72 | 219 | 0.0 | 0.0 | 0.00 | 0.31 | 0.31 | 96 | 1012.4 |
| 20260509022455 | 72 | 219 | 0.0 | 0.9 | 0.00 | 0.31 | 0.31 | 96 | 1012.4 |
| 20260509020306 | 72 | 208 | 0.0 | 0.0 | 0.00 | 0.31 | 0.31 | 96 | 1011.9 |
| 20260509015256 | 72 | 313 | 0.0 | 0.0 | 0.00 | 0.31 | 0.31 | 96 | 1012.1 |
| 20260509013112 | 72 | 313 | 0.0 | 0.0 | 0.00 | 0.29 | 0.30 | 95 | 1011.7 |
| 20260509012042 | 72 | 313 | 0.0 | 0.0 | 0.00 | 0.29 | 0.30 | 95 | 1011.8 |
| 20260509011015 | 72 | 313 | 0.0 | 0.0 | 0.00 | 0.29 | 0.30 | 95 | 1011.5 |
| 20260509003718 | 72 | 305 | 0.0 | 1.7 | 0.00 | 0.29 | 0.30 | 95 | 1011.1 |
| 20260509002654 | 72 | 279 | 0.0 | 3.5 | 0.00 | 0.29 | 0.30 | 94 | 1011.0 |
| 20260509001651 | 72 | 5 | 0.9 | 7.0 | 0.00 | 0.29 | 0.30 | 94 | 1011.0 |
| 20260509000716 | 72 | 348 | 1.7 | 7.0 | 0.00 | 0.29 | 0.30 | 94 | 1011.2 |
| 20260508235717 | 71 | 344 | 1.7 | 6.1 | 0.04 | 0.29 | 0.30 | 94 | 1011.3 |
| 20260508234700 | 71 | 5 | 1.7 | 8.7 | 0.09 | 0.29 | 0.30 | 93 | 1011.2 |
| 20260508233713 | 72 | 190 | 4.3 | 17.4 | 0.59 | 0.26 | 0.27 | 92 | 1011.6 |
| 20260508232659 | 76 | 196 | 4.3 | 17.4 | 1.10 | 0.04 | 0.06 | 87 | 1011.8 |
| 20260508231645 | 80 | 104 | 2.6 | 10.4 | 0.00 | 0.04 | 0.04 | 87 | 1009.6 |
| 20260508230653 | 81 | 350 | 2.6 | 8.7 | 0.00 | 0.04 | 0.04 | 87 | 1009.6 |
| 20260508225703 | 81 | 39 | 2.6 | 8.7 | 0.00 | 0.04 | 0.04 | 85 | 1009.7 |
| 20260508223622 | 82 | 330 | 0.9 | 5.2 | 0.00 | 0.04 | 0.04 | 82 | 1009.4 |
| 20260508221515 | 83 | 315 | 1.7 | 7.8 | 0.00 | 0.04 | 0.04 | 82 | 1009.2 |
| 20260508220459 | 83 | 15 | 2.6 | 9.6 | 0.00 | 0.04 | 0.04 | 81 | 1009.3 |
| 20260508215458 | 83 | 0 | 3.5 | 10.4 | 0.00 | 0.04 | 0.04 | 80 | 1009.3 |
| 20260508214433 | 84 | 310 | 0.9 | 8.7 | 0.00 | 0.04 | 0.04 | 80 | 1009.5 |
| 20260508213418 | 84 | 355 | 1.7 | 8.7 | 0.00 | 0.04 | 0.04 | 80 | 1009.6 |
| 20260508212351 | 84 | 296 | 2.6 | 7.8 | 0.00 | 0.04 | 0.04 | 79 | 1009.5 |
| 20260508211353 | 84 | 343 | 2.6 | 7.8 | 0.00 | 0.04 | 0.04 | 80 | 1009.5 |
| 20260508210348 | 85 | 294 | 1.7 | 6.1 | 0.00 | 0.04 | 0.04 | 79 | 1009.6 |
| 20260508205323 | 85 | 334 | 0.9 | 5.2 | 0.00 | 0.04 | 0.04 | 77 | 1009.6 |
| 20260508204319 | 85 | 222 | 1.7 | 9.6 | 0.00 | 0.04 | 0.04 | 79 | 1009.5 |
| 20260508203246 | 85 | 17 | 2.6 | 9.6 | 0.00 | 0.04 | 0.04 | 78 | 1009.4 |
| 20260508202249 | 86 | 327 | 0.9 | 5.2 | 0.00 | 0.04 | 0.04 | 78 | 1009.4 |
| 20260508201241 | 85 | 350 | 1.7 | 7.0 | 0.00 | 0.04 | 0.04 | 80 | 1009.8 |
| 20260508200217 | 85 | 325 | 2.6 | 7.0 | 0.00 | 0.04 | 0.04 | 79 | 1009.9 |
| 20260508194116 | 86 | 290 | 2.6 | 8.7 | 0.00 | 0.04 | 0.04 | 78 | 1010.3 |
| 20260508193140 | 86 | 327 | 2.6 | 8.7 | 0.00 | 0.04 | 0.04 | 78 | 1010.4 |
| 20260508192159 | 86 | 311 | 1.7 | 8.7 | 0.00 | 0.04 | 0.04 | 78 | 1010.4 |
| 20260508191211 | 86 | 294 | 1.7 | 7.8 | 0.00 | 0.04 | 0.04 | 78 | 1010.6 |
| 20260508183916 | 86 | 24 | 2.6 | 6.1 | 0.00 | 0.04 | 0.04 | 78 | 1011.1 |
| 20260508182851 | 86 | 289 | 1.7 | 7.8 | 0.00 | 0.04 | 0.04 | 77 | 1011.1 |
| 20260508181827 | 86 | 327 | 2.6 | 9.6 | 0.00 | 0.04 | 0.04 | 78 | 1011.4 |
| 20260508180846 | 86 | 319 | 1.7 | 9.6 | 0.00 | 0.04 | 0.04 | 77 | 1011.6 |
| 20260508174633 | 86 | 312 | 0.9 | 5.2 | 0.00 | 0.04 | 0.04 | 78 | 1011.7 |
| 20260508173622 | 87 | 271 | 1.7 | 5.2 | 0.00 | 0.04 | 0.04 | 76 | 1011.8 |
| 20260508172547 | 88 | 323 | 0.9 | 2.6 | 0.00 | 0.04 | 0.04 | 69 | 1011.7 |
| 20260508171525 | 88 | 301 | 0.9 | 2.6 | 0.00 | 0.04 | 0.04 | 70 | 1011.8 |
| 20260508170508 | 87 | 174 | 0.0 | 3.5 | 0.00 | 0.04 | 0.04 | 73 | 1011.9 |
| 20260508165530 | 87 | 183 | 0.9 | 3.5 | 0.00 | 0.04 | 0.04 | 72 | 1012.0 |
| 20260508162307 | 87 | 167 | 0.9 | 4.3 | 0.00 | 0.04 | 0.04 | 73 | 1012.4 |
| 20260508161318 | 87 | 248 | 0.9 | 4.3 | 0.00 | 0.04 | 0.04 | 72 | 1012.6 |
| 20260508160339 | 86 | 230 | 0.9 | 4.3 | 0.00 | 0.04 | 0.04 | 74 | 1012.8 |
| 20260508155311 | 85 | 227 | 0.9 | 2.6 | 0.00 | 0.04 | 0.04 | 77 | 1013.0 |
| 20260508154241 | 85 | 194 | 0.9 | 2.6 | 0.00 | 0.04 | 0.04 | 78 | 1013.0 |
| 20260508153216 | 85 | 82 | 0.9 | 2.6 | 0.00 | 0.04 | 0.04 | 78 | 1013.1 |
| 20260508152222 | 84 | 157 | 0.0 | 2.6 | 0.00 | 0.04 | 0.04 | 79 | 1013.5 |
| 20260508151207 | 84 | 181 | 0.9 | 3.5 | 0.00 | 0.04 | 0.04 | 79 | 1013.4 |
| 20260508145133 | 83 | 194 | 0.9 | 4.3 | 0.00 | 0.04 | 0.04 | 82 | 1013.4 |
| 20260508144130 | 82 | 142 | 0.9 | 3.5 | 0.00 | 0.04 | 0.04 | 83 | 1013.4 |
| 20260508141941 | 81 | 139 | 0.9 | 4.3 | 0.00 | 0.04 | 0.04 | 86 | 1013.3 |
| 20260508140910 | 81 | 138 | 1.7 | 4.3 | 0.00 | 0.04 | 0.04 | 85 | 1013.2 |
| 20260508135857 | 80 | 147 | 0.9 | 3.5 | 0.00 | 0.04 | 0.04 | 87 | 1013.2 |
| 20260508134849 | 80 | 213 | 0.9 | 4.3 | 0.00 | 0.04 | 0.04 | 87 | 1013.1 |
| 20260508133831 | 79 | 135 | 0.9 | 4.3 | 0.00 | 0.04 | 0.04 | 88 | 1013.3 |
| 20260508132853 | 79 | 133 | 0.9 | 3.5 | 0.00 | 0.04 | 0.04 | 89 | 1013.2 |
| 20260508131837 | 78 | 153 | 0.0 | 2.6 | 0.00 | 0.04 | 0.04 | 90 | 1013.0 |
| 20260508130859 | 78 | 175 | 0.9 | 5.2 | 0.00 | 0.04 | 0.04 | 91 | 1013.1 |
| 20260508125903 | 77 | 180 | 0.0 | 4.3 | 0.00 | 0.04 | 0.04 | 92 | 1013.0 |
| 20260508123750 | 75 | 180 | 0.0 | 1.7 | 0.00 | 0.04 | 0.04 | 96 | 1012.8 |
| 20260508122801 | 74 | 120 | 0.0 | 0.0 | 0.00 | 0.04 | 0.04 | 96 | 1012.7 |
| 20260508120607 | 71 | 115 | 0.0 | 0.0 | 0.00 | 0.04 | 0.04 | 98 | 1012.6 |
| 20260508115631 | 70 | 163 | 0.0 | 0.0 | 0.00 | 0.04 | 0.04 | 97 | 1012.7 |
| 20260508114646 | 68 | 163 | 0.0 | 0.0 | 0.00 | 0.04 | 0.04 | 97 | 1012.5 |
| 20260508112609 | 66 | 163 | 0.0 | 0.0 | 0.00 | 0.04 | 0.04 | 96 | 1012.3 |
| 20260508111608 | 66 | 163 | 0.0 | 0.0 | 0.00 | 0.04 | 0.04 | 96 | 1012.2 |
| 20260508110536 | 66 | 163 | 0.0 | 0.0 | 0.00 | 0.04 | 0.04 | 95 | 1011.9 |
| 20260508105556 | 65 | 163 | 0.0 | 0.0 | 0.00 | 0.04 | 0.04 | 95 | 1011.9 |
| 20260508104552 | 65 | 163 | 0.0 | 0.0 | 0.00 | 0.04 | 0.04 | 95 | 1011.7 |
| 20260508103524 | 66 | 163 | 0.0 | 0.0 | 0.00 | 0.04 | 0.04 | 95 | 1011.7 |
| 20260508102545 | 66 | 163 | 0.0 | 0.0 | 0.00 | 0.04 | 0.04 | 95 | 1011.6 |
| 20260508101558 | 66 | 163 | 0.0 | 0.0 | 0.00 | 0.04 | 0.04 | 95 | 1011.5 |
| 20260508095500 | 66 | 163 | 0.0 | 0.0 | 0.00 | 0.04 | 0.04 | 95 | 1011.2 |
| 20260508094519 | 66 | 163 | 0.0 | 0.0 | 0.00 | 0.04 | 0.04 | 95 | 1011.0 |
| 20260508093529 | 66 | 163 | 0.0 | 0.0 | 0.00 | 0.04 | 0.04 | 95 | 1010.9 |
| 20260508092510 | 66 | 163 | 0.0 | 0.0 | 0.00 | 0.04 | 0.04 | 95 | 1011.0 |
| 20260508091529 | 67 | 163 | 0.0 | 0.0 | 0.00 | 0.04 | 0.04 | 95 | 1011.0 |
| 20260508085405 | 67 | 163 | 0.0 | 0.0 | 0.00 | 0.04 | 0.04 | 94 | 1010.9 |
| 20260508084342 | 67 | 163 | 0.0 | 0.0 | 0.00 | 0.04 | 0.04 | 94 | 1010.9 |
| 20260508083402 | 67 | 163 | 0.0 | 0.0 | 0.00 | 0.04 | 0.04 | 94 | 1011.0 |
| 20260508082346 | 68 | 163 | 0.0 | 0.0 | 0.00 | 0.04 | 0.04 | 94 | 1011.0 |
| 20260508081323 | 68 | 163 | 0.0 | 0.0 | 0.00 | 0.04 | 0.04 | 94 | 1011.1 |
| 20260508080258 | 68 | 163 | 0.0 | 0.0 | 0.00 | 0.04 | 0.04 | 94 | 1011.1 |
| 20260508075249 | 68 | 163 | 0.0 | 0.0 | 0.00 | 0.04 | 0.04 | 94 | 1011.1 |
| 20260508070956 | 68 | 163 | 0.0 | 0.0 | 0.00 | 0.04 | 0.04 | 93 | 1011.3 |
| 20260508070020 | 68 | 163 | 0.0 | 0.0 | 0.00 | 0.04 | 0.04 | 93 | 1011.2 |
| 20260508063947 | 69 | 163 | 0.0 | 0.0 | 0.06 | 0.04 | 0.04 | 91 | 1011.4 |
| 20260508061815 | 70 | 106 | 0.0 | 0.0 | 0.00 | 0.00 | 0.00 | 90 | 1011.3 |
| 20260508055721 | 70 | 136 | 0.0 | 0.0 | 0.00 | 0.00 | 0.00 | 88 | 1011.4 |
| 20260508053634 | 70 | 136 | 0.0 | 0.0 | 0.00 | 0.00 | 0.00 | 87 | 1011.5 |
| 20260508052626 | 71 | 136 | 0.0 | 0.0 | 0.00 | 0.00 | 0.00 | 87 | 1011.6 |
| 20260508051640 | 71 | 136 | 0.0 | 0.0 | 0.00 | 0.00 | 0.00 | 86 | 1011.6 |
| 20260508050622 | 71 | 136 | 0.0 | 0.0 | 0.00 | 0.00 | 0.00 | 86 | 1011.6 |
| 20260508045609 | 71 | 136 | 0.0 | 0.0 | 0.00 | 0.00 | 0.00 | 85 | 1011.7 |
| 20260508043524 | 72 | 136 | 0.0 | 0.0 | 0.00 | 0.00 | 0.00 | 83 | 1011.6 |
| 20260508042543 | 72 | 136 | 0.0 | 0.0 | 0.00 | 0.00 | 0.00 | 83 | 1011.7 |
| 20260508041601 | 72 | 136 | 0.0 | 0.0 | 0.00 | 0.00 | 0.00 | 82 | 1011.6 |
| 20260508040532 | 72 | 136 | 0.0 | 0.0 | 0.00 | 0.00 | 0.00 | 81 | 1011.6 |
| 20260508035517 | 72 | 136 | 0.0 | 0.0 | 0.00 | 0.00 | 0.00 | 81 | 1011.6 |
| 20260508034503 | 72 | 136 | 0.0 | 0.0 | 0.00 | 0.00 | 0.00 | 80 | 1011.7 |
| 20260508033433 | 72 | 136 | 0.0 | 0.0 | 0.00 | 0.00 | 0.00 | 79 | 1011.6 |